DW9064 Weather Reports


Display with metric or nautical units.
time (UTC)temp
F
wind
direction
speed
MPH
gust
MPH
rain 1hr
in
rain 24hr
in
rain mn
in
humidity
%
barometer
mb
20260502224151 79 53 2.0 4.0 0.00 0.00 0.00 13 1029.4
20260502223251 79 58 2.0 8.0 0.00 0.00 0.00 10 1029.5
20260502222351 80 18 2.0 11.0 0.00 0.00 0.00 11 1029.5
20260502220551 80 70 7.0 11.0 0.00 0.00 0.00 10 1029.7
20260502214751 81 179 2.0 8.0 0.00 0.00 0.00 10 1029.7
20260502213851 81 111 3.0 8.0 0.00 0.00 0.00 10 1029.9
20260502212951 80 123 2.0 8.0 0.00 0.00 0.00 13 1029.9
20260502211151 80 135 3.0 10.0 0.00 0.00 0.00 12 1030.3
20260502210251 79 127 4.0 9.0 0.00 0.00 0.00 13 1030.4
20260502205351 79 100 3.0 9.0 0.00 0.00 0.00 15 1030.4
20260502204451 80 60 2.0 8.0 0.00 0.00 0.00 13 1030.5
20260502202651 78 143 2.0 6.0 0.00 0.00 0.00 13 1030.7
20260502201751 78 121 2.0 7.0 0.00 0.00 0.00 16 1030.8
20260502200851 78 56 1.0 6.0 0.00 0.00 0.00 14 1030.9
20260502195951 77 95 0.0 4.0 0.00 0.00 0.00 17 1031.0
20260502195051 78 81 2.0 5.0 0.00 0.00 0.00 15 1031.1
20260502194151 78 83 2.0 7.0 0.00 0.00 0.00 12 1031.2
20260502193251 78 88 2.0 5.0 0.00 0.00 0.00 14 1031.2
20260502191451 76 81 1.0 8.0 0.00 0.00 0.00 22 1031.7
20260502185651 74 96 3.0 7.0 0.00 0.00 0.00 25 1032.0
20260502184751 73 110 3.0 9.0 0.00 0.00 0.00 24 1032.1
20260502182951 72 88 4.0 8.0 0.00 0.00 0.00 25 1032.4
20260502181151 70 88 4.0 8.0 0.00 0.00 0.00 26 1032.8
20260502180251 70 90 2.0 8.0 0.00 0.00 0.00 29 1032.9
20260502164151 62 77 2.0 8.0 0.00 0.00 0.00 42 1033.7
20260502163251 61 73 2.0 10.0 0.00 0.00 0.00 44 1033.7
20260502162351 61 108 1.0 8.0 0.00 0.00 0.00 46 1033.7
20260502161450 60 96 3.0 8.0 0.00 0.00 0.00 46 1033.9
20260502160550 60 93 2.0 8.0 0.00 0.00 0.00 47 1033.9
20260502152050 54 90 2.0 7.0 0.00 0.00 0.00 60 1034.3
20260502151150 54 96 2.0 8.0 0.00 0.00 0.00 61 1034.5
20260502150250 53 83 2.0 9.0 0.00 0.00 0.00 63 1034.4
20260502130550 43 1 3.0 5.0 0.00 0.00 0.00 78 1033.8
20260502122950 44 1 3.0 6.0 0.00 0.00 0.00 77 1033.6
20260502122050 44 23 2.0 8.0 0.00 0.00 0.00 77 1033.6
20260502121150 44 16 2.0 6.0 0.00 0.00 0.00 77 1033.5
20260502120250 44 39 4.0 6.0 0.00 0.00 0.00 77 1033.4
20260502113550 45 2 2.0 7.0 0.00 0.00 0.00 76 1033.4
20260502112650 44 18 2.0 5.0 0.00 0.00 0.00 77 1033.4
20260502111750 44 31 2.0 5.0 0.00 0.00 0.00 77 1033.3
20260502110850 44 12 2.0 4.0 0.00 0.00 0.00 76 1033.3
20260502105950 44 11 2.0 6.0 0.00 0.00 0.00 75 1033.2
20260502105050 44 359 3.0 5.0 0.00 0.00 0.00 75 1033.2
20260502104150 44 19 3.0 5.0 0.00 0.00 0.00 75 1033.0
20260502103250 44 357 2.0 4.0 0.00 0.00 0.00 75 1033.1
20260502101450 44 346 4.0 8.0 0.00 0.00 0.00 76 1033.1
20260502100550 44 340 4.0 8.0 0.00 0.00 0.00 76 1032.9
20260502090250 46 330 4.0 8.0 0.00 0.00 0.00 72 1032.7
20260502071449 47 333 6.0 8.0 0.00 0.00 0.00 72 1032.3
20260502070549 48 329 6.0 8.0 0.00 0.00 0.00 73 1032.2
20260502064749 49 318 5.0 8.0 0.00 0.00 0.00 71 1032.0
20260502063849 49 318 6.0 8.0 0.00 0.00 0.00 71 1031.9
20260502062949 49 320 6.0 8.0 0.00 0.00 0.00 71 1031.8
20260502062049 49 320 5.0 8.0 0.00 0.00 0.00 70 1031.6
20260502061149 50 325 5.0 8.0 0.00 0.00 0.00 69 1031.5
20260502060249 50 327 5.0 8.0 0.00 0.00 0.00 70 1031.4
20260502055349 50 324 4.0 9.0 0.00 0.00 0.00 70 1031.3
20260502054449 50 335 6.0 9.0 0.00 0.00 0.00 68 1031.2
20260502052649 50 320 5.0 8.0 0.00 0.00 0.00 70 1031.1
20260502051749 51 314 7.0 9.0 0.00 0.00 0.00 69 1030.9
20260502050849 51 320 6.0 9.0 0.00 0.00 0.00 68 1030.9
20260502045949 52 320 4.0 8.0 0.00 0.00 0.00 67 1030.8
20260502045049 52 330 5.0 9.0 0.00 0.00 0.00 65 1030.7
20260502044149 52 331 8.0 10.0 0.00 0.00 0.00 65 1030.4
20260502043249 53 316 8.0 10.0 0.00 0.00 0.00 65 1030.4
20260502042349 53 322 8.0 9.0 0.00 0.00 0.00 64 1030.3
20260502040549 53 324 6.0 8.0 0.00 0.00 0.00 64 1030.1
20260502032049 56 316 6.0 10.0 0.00 0.00 0.00 61 1029.7
20260502031149 57 314 7.0 10.0 0.00 0.00 0.00 60 1029.5
20260502025349 58 314 7.0 8.0 0.00 0.00 0.00 59 1029.3
20260502024449 59 320 6.0 8.0 0.00 0.00 0.00 57 1029.2
20260502023549 60 313 6.0 9.0 0.00 0.00 0.00 57 1029.2
20260502022649 60 314 7.0 9.0 0.00 0.00 0.00 56 1029.1
20260502021749 60 314 7.0 8.0 0.00 0.00 0.00 56 1029.0
20260502020849 61 314 7.0 8.0 0.00 0.00 0.00 55 1029.0
20260502015949 62 316 7.0 8.0 0.00 0.00 0.00 52 1029.0
20260502015049 63 316 7.0 9.0 0.00 0.00 0.00 52 1029.0
20260502014149 63 314 7.0 8.0 0.00 0.00 0.00 50 1029.1
20260502013249 64 314 6.0 8.0 0.00 0.00 0.00 49 1029.1
20260502012349 65 316 7.0 8.0 0.00 0.00 0.00 47 1029.2
20260502010549 68 316 5.0 7.0 0.00 0.00 0.00 40 1029.3
20260502005648 70 314 4.0 5.0 0.00 0.00 0.00 33 1029.4
20260502004749 74 286 4.0 5.0 0.00 0.00 0.00 24 1029.4
20260502003848 76 208 2.0 7.0 0.00 0.00 0.00 10 1029.4
20260502002048 77 214 4.0 8.0 0.00 0.00 0.00 11 1029.5
20260502001149 78 230 3.0 4.0 0.00 0.00 0.00 10 1029.4
20260501235349 78 159 2.0 9.0 0.00 0.00 0.00 10 1029.6
20260501234449 77 172 5.0 11.0 0.00 0.00 0.00 10 1029.6
20260501233548 78 186 6.0 11.0 0.00 0.00 0.00 10 1029.7
20260501232648 78 167 4.0 10.0 0.00 0.00 0.00 10 1029.7
20260501231748 78 161 2.0 8.0 0.00 0.00 0.00 10 1029.8
20260501225948 78 149 4.0 7.0 0.00 0.00 0.00 10 1030.1
20260501225048 77 175 2.0 13.0 0.00 0.00 0.00 10 1030.3